Northwest River Forecast Center River Conditions Summary
Enter Search Selection
  Forecast Points Only

Minutes since last post:9
Latency (Post Time - Latest Obs Time):5
Click on column header to sort on the field
#IDHSADescriptionStateCountyElevationObservation TimeStageDischargeStatus
0LRWW1PQRLEWIS - AT WOODLANDWACLARK102022-11-23 17:15:008.05 0
1PACW4RIWPACIFIC CREEK - AT MORANWYTETON67202022-11-24 21:45:004.691499
2BRNI1BOISNAKE - BROWNLEE DAMIDADAMS18442022-12-01 07:00:002059.3 0
3LLKW1OTXSPOKANE - AT LONGLAKEWALINCOLN12992022-12-01 07:59:001535.46 0
4CABI1OTXCLARK FORK - CABINET GORGE DAMIDBONNER22602022-12-01 07:59:002172.69 0
5NOXM8MSOCLARK FORK - NOXON RAPIDS DAMMTSANDERS22702022-12-01 07:59:002328.01 0
6CHDW1OTXCHELAN - LAKE CHELAN DAMWACHELAN9952022-12-01 15:00:001089.9 0
7WEII1BOISNAKE - AT WEISERIDWASHINGTON20862022-12-01 15:00:003.3193230
8KELW1PQRCOWLITZ - AT KELSOWACOWLITZ22022-12-01 18:00:0013.9 0
9SRCW1SEWSKOKOMISH - AT CONFLUENCEWAMASON542022-12-01 21:30:006660
10UBDW1SEWBAKER - UPPER BAKER LAKEWAWHATCOM3932022-12-01 22:00:00694.71 0
11SELI1MSOSELWAY - NEAR LOWELLIDIDAHO15402022-12-01 22:00:003.197019
12ALRW1SEWNISQUALLY - ALDER RESERVOIRWAPIERCE12102022-12-01 22:00:001176.85 0
13MYDW1PQRCOWLITZ - MAYFIELD RESERVOIRWALEWIS2802022-12-01 22:00:00423.07 0
14PHIO3PQRMARYS - NEAR PHILOMATHORBENTON2242022-12-01 22:00:0010.169960
15MSRW1SEWCOWLITZ - MOSSYROCK RESERVOIRWALEWIS6792022-12-01 22:00:00704.59 0
16COEI1OTXCOEUR D ALENE - COEUR D ALENE LAKEIDKOOTENAI21602022-12-01 22:30:002123.21 0
17BDDI1BOIBOISE - BELOW DIV DAMIDADA28002022-12-01 22:30:006.052420
18PRTO3PQRWILLAMETTE - AT PORTLANDORMULTNOMAH22022-12-01 22:35:004.89 0
19ESTO3PQRCLACKAMAS - AT ESTACADAORCLACKAMAS2972022-12-01 22:45:0013.2927340
20STRM8MSOST. REGIS - NEAR ST. REGISMTMINERAL26452022-12-01 22:45:001.86800
21RIDI1PIHWILLOW CREEK - RIRIE DAMIDJEFFERSON51192022-12-01 22:45:005083.22 0
22SAKW1SEWSAUK - NEAR SAUKWASKAGIT2662022-12-01 22:45:003.4116390
23AUBW1SEWGREEN - NEAR AUBURNWAKING702022-12-01 22:45:0058.039990
24DGGI1PIHTETON - AB S. LEIGH CR NR DRIGGSIDTETON59532022-12-01 22:45:001.592019
25MYNO3MFRNF COQUILLE - NEAR MYRTLE POINTORCOOS22022-12-01 22:45:0015.5520870
26MNSW1SEWWYNOOCHEE - NEAR MONTESANOWAGRAYS HARBOR402022-12-01 22:45:0029.0211960
27NEWW1SEWNEWAUKUM - NEAR CHEHALISWALEWIS1902022-12-01 22:45:00196.1410070
28BONM8MSOBLACKFOOT - NEAR BONNERMTMISSOULA33452022-12-01 22:45:002.58689
29LWRI1PIHLITTLE WOOD - LITTLE WOOD DAMIDBLAINE51002022-12-01 22:45:005187.75 0
30AFRI1PIHSNAKE - AMERICAN FALLS RESERVOIRIDPOWER43702022-12-01 22:45:004326.11 0
31SNYI1BOISNAKE - AT NYSSAIDCANYON51702022-12-01 22:45:005.6269690
32THNW1SEWTHUNDER CREEK - NEAR NEWHALEMWAWHATCOM12202022-12-01 22:45:007.431480
33LSDW1OTXLITTLE SPOKANE - AT DARTFORDWASPOKANE15902022-12-01 22:45:002.61648
34ENVI1OTXNF COEUR D ALENE - AT ENAVILLEIDSHOSHONE21002022-12-01 22:45:0056.912230
35COQO3MFRCOQUILLE - AT COQUILLEORCOOS232022-12-01 22:45:0011.35 0
36EMMI1BOIPAYETTE - NEAR EMMETTIDGEM24002022-12-01 22:45:002.118720
37RCCM8MSOROCK CREEK - NEAR CLINTONMTMISSOULA35192022-12-01 22:45:005.142389
38ANTI1PIHHENRYS FORK - AT ST. ANTHONYIDFREMONT49512022-12-01 22:45:003.6713899
39DSRW1SEWDESCHUTES - NEAR RAINIERWATHURSTON3492022-12-01 22:45:004.473210
40WRAW1SEWWHITE - AT R STREETWAKING1152022-12-01 22:45:00111.4310100
41JLKW4RIWSNAKE - JACKSON LAKE AT DAMWYTETON67282022-12-01 22:45:002850
42THRM8MSOTHOMPSON - NEAR THOMPSON FALLSMTSANDERS24292022-12-01 22:45:002.731560
43DRBI1BOIDEADWOOD - BELOW DEADWOOD RESIDVALLEY51922022-12-01 22:45:002.07490
44CFMM8MSOFLATHEAD - AT COLUMBIA FALLSMTFLATHEAD29782022-12-01 22:45:003.8539030
45EGCO3BOIEAGLE CREEK - ABOVE SKULL CKORBAKER28002022-12-01 22:45:0069.80
46ISLI1PIHHENRYS FORK - NEAR ISLAND PARK DAMIDFREMONT62252022-12-01 22:45:002.41840
47PORI1OTXKOOTENAI - AT PORTHILLIDBOUNDARY02022-12-01 22:45:0044.65 0
48DEDI1BOIDEADWOOD - NEAR LOWMANIDVALLEY53342022-12-01 22:45:002.07 0
49TILW1SEWTILTON - NEAR CINEBARWALEWIS6002022-12-01 22:45:003.896900
50IPDI1PIHHENRYS FORK - ISLAND PARK DAMIDFREMONT63022022-12-01 22:45:006295.99 0
51BCDW1SEWSKOOKUMCHUCK - NEAR BUCODAWATHURSTON1952022-12-01 22:45:00204.553140
52SPRO3PQRMOHAWK - NEAR SPRINGFIELDORLANE4422022-12-01 22:45:003.376060
53BITM8MSOBITTERROOT - NEAR MISSOULAMTMISSOULA31102022-12-01 22:45:002.976720
54SRGM8MSOCLARK FORK - AT ST REGISMTMINERAL26002022-12-01 22:45:005.0223020
55BIGI1BOIBOISE - AT GLENWOOD BRIDGEIDADA26002022-12-01 22:45:003.792680
56ECDO3MFRELK CREEK - NEAR DRAINORDOUGLAS6892022-12-01 22:45:002.521948
57OKMW1OTXOKANOGAN - AT MALOTTWAOKANOGAN7832022-12-01 22:45:003.018049
58MCZO3PQRMCKENZIE - NEAR WALTERVILLEORLANE6002022-12-01 22:45:001.7716750
59SRLM8MSOSTILLWATER - NEAR LAWRENCE PARKMTFLATHEAD29532022-12-01 22:45:003.834019
60WHRM8MSOWHITEFISH - NEAR KALISPELLMTFLATHEAD29702022-12-01 22:45:001.61849
61PIHI1PIHPORTNEUF - AT POCATELLOIDBANNOCK44202022-12-01 22:45:003.751510
62HAGW1OTXHANGMAN CREEK - AT SPOKANEWASPOKANE17172022-12-01 22:45:001.44419
63CAMI1BOIWEISER - NEAR CAMBRIDGEIDWASHINGTON26602022-12-01 22:45:002.74910
64FCFM8MSONF FLATHEAD - NEAR COLUMBIA FALLSMTFLATHEAD31452022-12-01 22:45:001.967699
65TLYO3PQRCLACKAMAS - THREE LYNXORCLACKAMAS11202022-12-01 22:45:002.1317390
66SSUW1SEWSF SKOKOMISH - NEAR UNIONWAMASON1032022-12-01 22:45:000.753140
67PILW1SEWPILCHUCK - NEAR SNOHOMISHWASNOHOMISH02022-12-01 22:45:0010.993790
68TRYM8MSOYAAK - NEAR TROYMTLINCOLN18392022-12-01 22:45:003.693629
69SPEW1SEWSOUTH PRAIRIE - AT SOUTH PRAIRIEWAPIERCE4302022-12-01 22:45:0024.761428
70TRSO3PQRTHOMAS CREEK - NEAR SCIOORLINN3802022-12-01 22:45:006.797390
71KRBO3MFRILLINOIS - AT KERBYORJOSEPHINE12102022-12-01 22:45:005.7212240
72FISM8MSOFISHER - NEAR LIBBYMTFLATHEAD21342022-12-01 22:45:003.11430
73CSDI1BOINF PAYETTE - CASCADE DAMIDVALLEY48282022-12-01 22:45:004816.12 0
74BEAO3PQRNESTUCCA - NEAR BEAVERORTILLAMOOK432022-12-01 22:45:007.4321760
75MODO3PDTDESCHUTES - AT MOODY NR BIGGSORWASCO1672022-12-01 22:45:002.9145710
76SFCM8MSOSF FLATHEAD - NR COLUMBIA FALLSMTFLATHEAD02022-12-01 22:45:006.1628970
77MIDI1BOIMF SALMON - MIDDLE FORK LODGEIDCUSTER44802022-12-01 22:45:001.535370
78NACW1PDTNACHES - NEAR NACHESWAYAKIMA15502022-12-01 22:45:0013.075580
79WGCM8MSOMF FLATHEAD - NEAR WEST GLACIERMTFLATHEAD31292022-12-01 22:45:001.453030
80EASI1OTXMOYIE - AT EASTPORTIDBOUNDARY26202022-12-01 22:45:003.91979
81COCO3PQRCLACKAMAS - NEAR OREGON CITYORCLACKAMAS152022-12-01 22:45:0026.6746880
82SFLN2PIHSALMON FALLS CREEK - NR SAN JACINTONVELKO02022-12-01 22:45:005.68510
83CRPW1SEWCHEHALIS - AT PORTERWAGRAYS HARBOR242022-12-01 22:45:0039.8280440
84WHBI1MSOSALMON - AT WHITEBIRDIDIDAHO14132022-12-01 22:45:0012.3937710
85PLNM8MSOCLARK FORK - NEAR PLAINSMTSANDERS24492022-12-01 22:45:004.61103400
86PACI1OTXPARADISE CREEK - AT UNIVERSITY OF IDAHO AT MOSCOWIDLATAH25442022-12-01 22:45:004.3960
87CBAO3PQRCOLUMBIA - AT PORT WESTWARD NR QUINCYORCOLUMBIA-12022-12-01 22:50:003.7 0
88FPOM8MSOFLATHEAD - NEAR POLSONMTLAKE26932022-12-01 22:50:005.9583760
89MKDO3PDTMCKAY CREEK - PENDLETONORUMATILLA13332022-12-01 23:00:001257 0
90RIGI1MSOLITTLE SALMON - AT RIGGINSIDIDAHO17602022-12-01 23:00:002.371620
91HHDW1SEWGREEN - HOWARD HANSON DAMWAKING12062022-12-01 23:00:001078.41 0
92ABOM8MSOCLARK FORK - ABOVE MISSOULAMTMISSOULA31982022-12-01 23:00:002.8718009
93SKOW1SEWNF SKOKOMISH - BELOW STAIRCASE RAPIDS NEAR HOODSPORTWAMASON7622022-12-01 23:00:003.281810
94HOPI1OTXPEND OREILLE - PEND OREILLE LAKE NR HOPEIDBONNER20002022-12-01 23:00:002051.43 0
95HOTI1BOIBRUNEAU - NEAR HOT SPRINGSIDOWYHEE25992022-12-01 23:00:004.6560
96WELW1OTXCOLUMBIA - WELLS DAMWADOUGLAS7812022-12-01 23:00:00778.11 0
97LERI1MSOLEMHI - NEAR LEMHIIDLEMHI49602022-12-01 23:00:003.942039
98SMNI1MSOSALMON - AT SALMONIDLEMHI39112022-12-01 23:00:002.1410699
99SNAW1SEWSNOHOMISH - AT SNOHOMISHWASNOHOMISH352022-12-01 23:00:0015.4180000
100MCMO3PQRS YAMHILL - AT MCMINNVILLEORYAMHILL622022-12-01 23:00:002745850
101MCMW1SEWMINERAL CREEK - NEAR MINERALWALEWIS13402022-12-01 23:00:009.151480
102REEO3PQRUMPQUA - AT REEDSPORTORDOUGLAS02022-12-01 23:00:008.4 0
103GPRO3PQRMIDDLE SANTIAM - GREEN PETER DAMORLINN10152022-12-01 23:00:00924.19 0
104WANW1OTXCOLUMBIA - WANAPUM DAMWAGRANT5702022-12-01 23:00:00568.1 0
105KIOW1PDTYAKIMA - AT KIONAWAYAKIMA4542022-12-01 23:00:004.2319120
106MFNW1SEWMF NOOKSACK - NEAR DEMINGWAWHATCOM5802022-12-01 23:00:003.292010
107HAHW1SEWGREEN - BELOW HOWARD HANSON DAMWAKING9902022-12-01 23:00:005.737490
108POWO3MFRSF COQUILLE - AT POWERSORCOOS2202022-12-01 23:00:004.0716110
109GSVO3MFRCOW CREEK - GALESVILLE RESERVOIRORDOUGLAS18812022-12-01 23:00:001810.76 0
110HALI1PIHBIG WOOD - AT HAILEYIDBLAINE52952022-12-01 23:00:001.471510
111LGRW1SEWNISQUALLY - AT LA GRANDEWAPIERCE4902022-12-01 23:00:0010100
112JHNO3PDTJOHN DAY - NEAR JOHN DAYORGRANT31312022-12-01 23:00:003.69910
113LGSW1UnkSNAKE - LITTLE GOOSE DAMWAWHITMAN7022022-12-01 23:00:00636.05 0
114JDAO3PDTCOLUMBIA - JOHN DAY DAMORSHERMAN2682022-12-01 23:00:00264.63 0
115CANO3PQRMOLALLA - NEAR CANBYORCLACKAMAS942022-12-01 23:00:0013.5117180
116DEEO3MFRDEER CREEK - NEAR ROSEBURGORDOUGLAS6902022-12-01 23:00:003.09180
117EASW1PDTYAKIMA - AT EASTONWAKITTITAS21352022-12-01 23:00:0047.892460
118KADW1PDTKACHESS - KACHESS DAMWAKITTITAS22692022-12-01 23:00:002233.25 0
119DONO3BOIDONNER UND BLITZEN - NR FRENCHGLENORHARNEY42602022-12-01 23:00:001.84320
120WSRI1BOIWEISER - NEAR WEISERIDWASHINGTON22062022-12-01 23:00:004.051529
121RODW1SEWSKAGIT - ROSS RESERVOIRWAWHATCOM16052022-12-01 23:00:001561.42 0
122LGDW1OTXSNAKE - LOWER GRANITE DAMWAWHITMAN7382022-12-01 23:00:00737.06 0
123MMRW1SEWWHITE - AT MUD MOUNTAIN DAMWAKING13302022-12-01 23:00:00903.58 0
124HWRI1PIHBIG LOST - AT HOWELL RANCH NEAR CHILLYIDCUSTER66222022-12-01 23:00:002.044689
125BWKI1PIHBIG WOOD - NEAR KETCHUMIDBLAINE62402022-12-01 23:00:004.87520
126MPLO3PQRSIUSLAW - NEAR MAPLETONORLANE412022-12-01 23:00:007.0632400
127IMNO3PDTIMNAHA - AT IMNAHAORWALLOWA19682022-12-01 23:00:001.921470
128MORW1SEWCEDAR - CHESTER MORSE LAKEWAKING15602022-12-01 23:00:001549.27 0
129SPDI1OTXCLEARWATER - AT SPALDINGIDNEZ PERCE7702022-12-01 23:00:003.5138150
130RISW1OTXCOLUMBIA - BLO ROCK ISLAND DAMWADOUGLAS6092022-12-01 23:00:00612.2 0
131BUSO3BOISILVIES - NEAR BURNSORHARNEY41952022-12-01 23:00:000.59130
132IHDW1PDTSNAKE - ICE HARBOR DAMWAFRANKLIN3682022-12-01 23:00:00439.09 0
133CHJW1OTXCOLUMBIA - CHIEF JOSEPH DAMWADOUGLAS8202022-12-01 23:00:00953.6 0
134FFXW1SEWCARBON - NEAR FAIRFAXWAPIERCE12132022-12-01 23:00:005.891260
135WYDW1SEWWYNOOCHEE - WYNOOCHEE DAMWAGRAYS HARBOR8102022-12-01 23:00:00765.98 0
136TIDO3PQRALSEA - NEAR TIDEWATERORLINCOLN482022-12-01 23:00:005.825900
137NSSW1SEWSF NOOKSACK - AT SAXON BRIDGEWAWHATCOM3802022-12-01 23:00:001.263640
138KBDM8MSOKOOTENAI - BELOW LIBBY DAMMTLINCOLN21002022-12-01 23:00:0021.61152640
139TLRW1SEWSF TOLT - TOLT RESERVOIRWAKING17652022-12-01 23:00:001734.76 0
140TRAO3PQRTRASK - TILLAMOOKORTILLAMOOK502022-12-01 23:00:009.2420970
141LOCI1MSOLOCHSA - NEAR LOWELLIDIDAHO14532022-12-01 23:00:001.994279
142OKNW1OTXOKANOGAN - AT OROVILLEWAOKANOGAN9002022-12-01 23:00:003780
143ARDW1OTXENTIAT - NEAR ARDENVOIRWACHELAN15612022-12-01 23:00:001.04658
144NISW1SEWNISQUALLY - NEAR NATIONALWAPIERCE14502022-12-01 23:00:003.681690
145SWRM8MSOSWAN - NEAR BIGFORKMTLAKE30632022-12-01 23:00:002.324260
146RRHW1OTXCOLUMBIA - ROCKY REACH DAMWACHELAN7032022-12-01 23:00:00706.29 0
147LMNW1UnkSNAKE - LOWER MONUMENTAL DAMWAWALLA WALLA4592022-12-01 23:00:00539.2 0
148CGMW1SEWCHEHALIS - NEAR GRAND MOUNDWATHURSTON1242022-12-01 23:00:00134.7956700
149PITW1PDTKLICKITAT - NEAR PITTWAKLICKITAT2892022-12-01 23:00:004.077910
150TDAO3PDTCOLUMBIA - THE DALLES DAMORWASCO802022-12-01 23:00:00159.3 0
151CLFW1PDTNACHES - NEAR CLIFFDELWAYAKIMA22802022-12-01 23:00:0027.262890
152KEDW1PDTYAKIMA - KEECHELUS LAKEWAKITTITAS24792022-12-01 23:00:002465.68 0
153LNDW1SEWCEDAR - NEAR LANDSBURGWAKING5662022-12-01 23:00:001.534570
154CIYW1SEWCISPUS - NEAR RANDLEWALEWIS12602022-12-01 23:00:0013.855410
155CENW1SEWCHEHALIS - NEAR CENTRALIAWALEWIS1852022-12-01 23:00:00157.4830790
156UNDW1PDTWHITE SALMON - NEAR UNDERWOODWAKLICKITAT1132022-12-01 23:00:003.496000
157SCOO3PQRSCOGGINS CREEK - NEAR GASTONORWASHINGTON1572022-12-01 23:00:004.53190
158LYDM8MSOKOOTENAI - LIBBY DAMMTLINCOLN24592022-12-01 23:00:002435.64 0
159PRII1OTXPOTLATCH - BELOW LITTLE POTLATCHIDNEZ PERCE02022-12-01 23:00:004.35738
160BCLO3PQRNORTH SANTIAM - AT NIAGARAORLINN10942022-12-01 23:00:003.3916190
161SCDO3PQRSCOGGINS CREEK - SCOGGINS DAMORWASHINGTON3062022-12-01 23:00:00269.97 0
162GCDW1OTXCOLUMBIA - GRAND COULEE DAMWAGRANT17002022-12-01 23:00:001278.8 0
163PRWW1OTXCOLUMBIA - PRIEST RAPIDS DAMWAGRANT4602022-12-01 23:00:00484.33 0
164ELWW1SEWELWHA - AT MCDONALD BRIDGE NEAR PORT ANGELESWACLALLAM2002022-12-01 23:00:009.536590
165ALFW1OTXPEND OREILLE - ALBENI FALLS DAMWAPEND OREILLE20502022-12-01 23:00:00217000
166BELM8MSOCLARK FORK - BELOW MISSOULAMTMISSOULA30842022-12-01 23:00:001.0919540
167RDLO3MFRCOW CREEK - NEAR RIDDLEORDOUGLAS7232022-12-01 23:00:003.412190
168PARW1PDTYAKIMA - NEAR PARKERWAYAKIMA8892022-12-01 23:00:003.0816300
169TRYO3PDTGRANDE RONDE - TROYORWALLOWA15862022-12-01 23:00:003.359260
170LOPO3PQRMF WILLAMETTE - LOOKOUT POINT DAMORLANE7122022-12-01 23:00:00825.71 0
171PDTO3PDTUMATILLA - AT PENDLETONORUMATILLA10502022-12-01 23:00:004.81720
172PACW1SEWCOWLITZ - AT PACKWOODWALEWIS10482022-12-01 23:00:000.986830
173CTAW1SEWSKOOKUMCHUCK - AT CENTRALIAWALEWIS1002022-12-01 23:00:00179.097350
174DWRI1MSONF CLEARWATER - DWORSHAK DAMIDCLEARWATER9952022-12-01 23:00:001515.47 0
175AURO3PQRPUDDING - AT AURORAORMARION722022-12-01 23:00:0013.1521490
176FOSO3PQRSOUTH SANTIAM - FOSTER DAMORLINN5502022-12-01 23:00:00617.05 0
177CWMO3MFRCOW CREEK - NEAR GLENDALEORDOUGLAS10102022-12-01 23:00:000.77890
178REXI1PIHHENRYS FORK - AT REXBURGIDMADISON48062022-12-01 23:15:004.0513960
179PULW1OTXSF PALOUSE - AT PULLMANWAWHITMAN23262022-12-01 23:15:001.42180
180TOLW1SEWTOLT - NEAR CARNATIONWAKING3482022-12-01 23:15:005.093330
181WARO3BOIMALHEUR - BLO WARM SPRS RES NR RIVERSIDEORMALHEUR33052022-12-01 23:15:002.3700
182MROW1SEWSNOHOMISH - NEAR MONROEWASNOHOMISH132022-12-01 23:15:002.4953210
183PRCI1OTXNF COEUR D ALENE - NEAR PRICHARDIDSHOSHONE24852022-12-01 23:15:001.542309
184SHYI1PIHSNAKE - NEAR SHELLEYIDBINGHAM45992022-12-01 23:15:005.3320350
185ORCO3PQRWILLAMETTE - BL FALLS AT OR CITYORCLACKAMAS102022-12-01 23:15:009.87 0
186ORFI1MSOCLEARWATER - AT OROFINOIDCLEARWATER9912022-12-01 23:15:002.8117369
187STII1BOISF CLEARWATER - AT STITESIDIDAHO13002022-12-01 23:15:002.872489
188TEAI1PIHTETON - NEAR ST. ANTHONYIDFREMONT49702022-12-01 23:15:001.913479
189TOPI1PIHPORTNEUF - AT TOPAZIDBANNOCK49182022-12-01 23:15:002.44970
190CRNW1SEWSNOQUALMIE - NEAR CARNATIONWAKING602022-12-01 23:15:0046.2219200
191DRSW1SEWDUNGENESS - NEAR SEQUIMWACLALLAM5692022-12-01 23:15:002.711570
192SIFI1PIHSNAKE - AB EAGLE ROCK NR IDAHO FALLSIDBONNEVILLE47302022-12-01 23:15:006.1330139
193TONW1OTXOKANOGAN - NEAR TONASKETWAOKANOGAN8612022-12-01 23:15:004.558109
194BWMI1PIHBIG WOOD - BELOW MAGIC DAM NEAR RICHFIELDIDBLAINE46622022-12-01 23:15:001.7810
195BFTI1PIHSNAKE - NEAR BLACKFOOTIDBINGHAM44002022-12-01 23:15:002.8520630
196WLAO3PQRS YAMHILL - NEAR WILLAMINAORPOLK2362022-12-01 23:15:004.9614230
197BEUO3BOINF MALHEUR - AT BEULAHORMALHEUR32702022-12-01 23:15:001.130
198ANAW1OTXSNAKE - NEAR ANATONEWAASOTIN8072022-12-01 23:15:003.37134350
199BFEI1OTXKOOTENAI - AT BONNERS FERRYIDBOUNDARY17002022-12-01 23:15:0048.04 0
200EKTO3MFRUMPQUA - NEAR ELKTONORDOUGLAS902022-12-01 23:15:004.7434910
201TANW1SEWMF SNOQUALMIE - NEAR TANNERWAKING7802022-12-01 23:15:002.365490
202BERO3BOIMALHEUR - AGENCY VALLEY DAMORMALHEUR33052022-12-01 23:15:003296.6 0
203GFLW1SEWSF STILLAGUAMISH - NEAR GRANITE FALLSWASNOHOMISH3102022-12-01 23:15:004.584200
204PWDO3BOIPOWDER - AT BAKERORBAKER34402022-12-01 23:15:001.15120
205GIBO3PDTUMATILLA - NEAR GIBBONORUMATILLA18552022-12-01 23:15:002.9840
206LAUW1OTXKETTLE - AT LAURIERWAFERRY14262022-12-01 23:15:002.742668
207MFDO3MFRBEAR CREEK - AT MEDFORDORJACKSON13422022-12-01 23:15:002.56220
208BLUO3PQRBLUE - BLUE RESERVOIRORLANE13572022-12-01 23:15:003.963470
209DARM8MSOBITTERROOT - NEAR DARBYMTRAVALLI39422022-12-01 23:15:001.432159
210PRCM8MSOPROSPECT CREEK - AT THOMPSON FALLSMTSANDERS23822022-12-01 23:15:000.54420
211RNTW1SEWCEDAR - AT RENTONWAKING152022-12-01 23:15:008.414600
212ISSW1SEWISSAQUAH CREEK - NEAR MOUTHWAKING362022-12-01 23:15:004.881240
213MFPI1BOIMF PAYETTE - NEAR CROUCHIDBOISE30402022-12-01 23:15:005.551110
214SNAI1PIHSNAKE - AT BLACKFOOTIDBINGHAM44902022-12-01 23:15:004.7819930
215DRMM8MSOCLARK FORK - NR DRUMMONDMTGRANITE33792022-12-01 23:15:003.15209
216NFNW1SEWNF NOOKSACK - NEAR GLACIERWAWHATCOM12452022-12-01 23:15:001.842090
217WFBM8MSOWF BITTERROOT - NEAR CONNERMTRAVALLI45812022-12-01 23:15:001.13560
218SRMO3PQRSANDY - NEAR MARMOTORCLACKAMAS7302022-12-01 23:15:00691.6613450
219LEOI1OTXKOOTENAI - AT LEONIAIDBOUNDARY17902022-12-01 23:15:0014121260
220WSNO3MFRS UMPQUA - NEAR WINSTONORDOUGLAS4632022-12-01 23:15:006.6223830
221PESW1OTXWENATCHEE - AT PESHASTINWACHELAN10282022-12-01 23:15:002.086678
222UMTW1PDTYAKIMA - AT UMTANUMWAKITTITAS13002022-12-01 23:15:0030.939870
223PRTI1OTXPRIEST - NEAR PRIEST RIVERIDBONNER20902022-12-01 23:15:001.355640
224WCHW1SEWSAUK - ABOVE WHITE CHUCKWASNOHOMISH9302022-12-01 23:15:002.684060
225WTHW1OTXMETHOW - AT WINTHROPWAOKANOGAN17182022-12-01 23:15:009.862208
226SATW1SEWSATSOP - NEAR SATSOPWAGRAYS HARBOR212022-12-01 23:15:0030.1914470
227SATI1OTXST MARIES - NEAR SANTAIDBENEWAH21722022-12-01 23:15:004.742229
228SNQW1SEWNF SNOQUALMIE - NEAR SNOQUALMIE FALLSWAKING11302022-12-01 23:15:002.832540
229MYKO3PDTMCKAY CREEK - NEAR PILOT ROCKORUMATILLA13432022-12-01 23:15:002.81390
230NRKW1SEWNOOKSACK - AT CEDARVILLEWAWHATCOM02022-12-01 23:15:00139.8915910
231CTLI1OTXCOEUR D ALENE - AT CATALDOIDKOOTENAI21002022-12-01 23:15:0032.643400
232FRYW1OTXKETTLE - NEAR FERRYWAFERRY18372022-12-01 23:15:009.15970
233WRMO3PDTMALHEUR - WARM SPRINGS DAMORMALHEUR33902022-12-01 23:15:003340.23 0
234LGNO3PDTGRANDE RONDE - NEAR PERRYORUNION29502022-12-01 23:15:000.97200
235CLUW1PDTCLE ELUM - CLE ELUM LAKEWAKITTITAS22402022-12-01 23:15:002170.12 0
236PATW1OTXMETHOW - NEAR PATEROSWAOKANOGAN9002022-12-01 23:15:001.844199
237CHEI1PIHFALL RIVER - NEAR CHESTERIDFREMONT50522022-12-01 23:15:005.0235979
238GARW1SEWSF SNOQUALMIE - NEAR GARCIAWAKING14482022-12-01 23:15:0010.671170
239LUCI1BOIBOISE - LUCKY PEAK DAMIDADA28402022-12-01 23:15:002950.42 0
240CORO3PQRWILLAMETTE - AT CORVALLISORBENTON1922022-12-01 23:15:0014.55147460
241FSSO3PQRNEHALEM - FOSSORTILLAMOOK332022-12-01 23:15:008.7170560
242LSTO3PDTLOSTINE - NR LOSTINEORWALLOWA36502022-12-01 23:15:001.72400
243ARGW1SEWNF STILLAGUAMISH - NEAR ARLINGTONWASNOHOMISH892022-12-01 23:15:002.9410080
244PRDW1OTXCOLUMBIA - BLO PRIEST RAPIDS DAMWAGRANT3882022-12-01 23:15:0014.731073390
245SWAI1BOISNAKE - BELOW SWAN FALLSIDADA22712022-12-01 23:17:0020.763270
246KTFW1OTXCOLVILLE - AT KETTLE FALLSWASTEVENS14002022-12-01 23:20:005.44898
247MYPO3MFRSF COQUILLE - AT MYRTLE POINTORCOOS602022-12-01 23:20:0013.6337980
248ASTO3PQRTONGUE POINT TIDE GAGEORCLATSOP22022-12-01 23:24:003.24 0
249CHAO3MFRCHARLESTON TIDEORCOOS02022-12-01 23:24:004.18 0
250LOPW1PQRCOLUMBIA - AT LONGVIEWWACOWLITZ12022-12-01 23:24:004.43 0
251HCRO3PQRMF WILLAMETTE - HILLS CREEK DAMORLANE15442022-12-01 23:25:003.7210810
252STHW1OTXSTEHEKIN - AT STEHEKINWACHELAN10992022-12-01 23:30:0018.521828
253MVEW1SEWSKAGIT - NEAR MT VERNONWASKAGIT02022-12-01 23:30:0012.0891610
254NASW1PQRNASELLE - NEAR NASELLEWAPACIFIC242022-12-01 23:30:006.799700
255TCHW1PDTWALLA WALLA - NEAR TOUCHETWAWALLA WALLA4052022-12-01 23:30:003.813260
256CLDI1OTXST JOE - AT CALDERIDSHOSHONE20962022-12-01 23:30:005.333699
257NKSW1SEWNOOKSACK - AT FERNDALEWAWHATCOM52022-12-01 23:30:004.5718900
258SYCO3PQRJOHNSON CREEK - AT SYCAMOREORMULTNOMAH2282022-12-01 23:30:003.071030
259CHTO3MFRCHETCO - NEAR BROOKINGSORCURRY502022-12-01 23:30:002.3420870
260NITW1OTXSIMILKAMEEN - NEAR NIGHTHAWKWAOKANOGAN11382022-12-01 23:30:002.333309
261MONO3PDTNF JOHN DAY - AT MONUMENTORGRANT19602022-12-01 23:30:002.81750
262MORI1BOIMORES CREEK - NR ARROWROCK DAMIDADA31202022-12-01 23:30:002.551389
263BTSI1BOIBOISE - NR TWIN SPRINGSIDADA32562022-12-01 23:30:005.573780
264MNRO3PQRLONG TOM - AT MONROEORBENTON2712022-12-01 23:30:004.893810
265SQUW1SEWSNOQUALMIE - NEAR SNOQUALMIEWAKING1202022-12-01 23:30:004.3713390
266JKSW4RIWSNAKE - NEAR JACKSONWYTETON59502022-12-01 23:30:001.0110190
267SRMW1SEWSKAGIT - AT MARBLEMOUNTWASKAGIT3052022-12-01 23:30:003.7244400
268JFFO3PQRSANTIAM - AT JEFFERSONORMARION2202022-12-01 23:30:006.51115730
269CALW1SEWCALAWAH - NEAR FORKSWACLALLAM2102022-12-01 23:30:004.638960
270CASW1PQRCOWLITZ - AT CASTLE ROCKWACOWLITZ202022-12-01 23:30:0035.81118600
271UMAO3PDTUMATILLA - NEAR UMATILLAORUMATILLA3302022-12-01 23:30:002.891860
272PERM8MSOFLATHEAD - AT PERMAMTSANDERS25692022-12-01 23:30:008.8382990
273VALO3BOIMALHEUR - NEAR VALEORMALHEUR22202022-12-01 23:30:0010.97580
274DLGM8MSOCLARK FORK - AT DEER LODGEMTPOWELL45002022-12-01 23:30:002.742229
275HRSI1BOIPAYETTE - NEAR HORSESHOE BENDIDBOISE26262022-12-01 23:30:002.819050
276PRPI1BOIPAYETTE - NEAR PAYETTEIDPAYETTE21382022-12-01 23:30:004.8211120
277PRLI1BOISF PAYETTE - AT LOWMANIDBOISE37902022-12-01 23:30:003.253399
278DORO3PQRROW - DORENA DAMORLANE8202022-12-01 23:30:003.346820
279DLLO3PQRTUALATIN - NEAR DILLEYORWASHINGTON1472022-12-01 23:30:0014.565510
280DOTW1SEWCHEHALIS - NEAR DOTYWALEWIS3022022-12-01 23:30:00308.698640
281COKW1SEWCOWLITZ - NEAR KOSMOSWALEWIS7802022-12-01 23:30:0025900
282CONW1SEWSKAGIT - NEAR CONCRETEWASKAGIT1302022-12-01 23:30:0015.7978780
283OGCN2LKNOWYHEE - NR GOLD CKNVELKO61192022-12-01 23:30:000.580
284TLMO3PQRWILSON - NEAR TILLAMOOKORTILLAMOOK422022-12-01 23:30:005.9322900
285NSPW1SEWNF SKOKOMISH - NEAR POTLATCHWAMASON632022-12-01 23:30:003.363480
286TILO3MFRS UMPQUA - AT TILLERORDOUGLAS10402022-12-01 23:30:003.058640
287COTO3PQRCOAST FORK WILLAMETTE - COTTAGE GROVE DAMORLANE8002022-12-01 23:30:003.11790
288TNAW1PDTTEANAWAY - BELOW FORKSWAKITTITAS23002022-12-01 23:30:0010.881690
289PALI1PIHSNAKE - NEAR IRWINIDBONNEVILLE53532022-12-01 23:30:004.419640
290PARI1BOIBOISE - NEAR PARMAIDCANYON21962022-12-01 23:30:008.557000
291OWYO3BOIOWYHEE - OWYHEE DAMORMALHEUR24002022-12-01 23:30:000.85230
292TRBO3PQRMCKENZIE - BELOW TRAIL BRIDGE DAMORLINN19802022-12-01 23:30:006.467330
293ORTW1SEWPUYALLUP - NEAR ORTINGWAPIERCE3532022-12-01 23:30:005.235070
294TOTW1PQRTOUTLE - AT TOWER BRIDGEWACOWLITZ1702022-12-01 23:30:00122.2821480
295SLTW1SEWSULTAN - NEAR SULTANWASNOHOMISH2902022-12-01 23:30:005.354390
296ARAI1BOISF BOISE - ANDERSON RANCH DAMIDELMORE38802022-12-01 23:30:004171.34 0
297APRO3MFRAPPLEGATE - NEAR APPLEGATEORJACKSON12852022-12-01 23:30:001.331590
298SALW4RIWSALT - ABV PALISADES RES NR ETNAWYLINCOLN56762022-12-01 23:30:001.894170
299ARWO3MFRAPPLEGATE - NEAR WILDERVILLEORJOSEPHINE9502022-12-01 23:30:002.272560
300RSBO3MFRS UMPQUA - AT ROSEBURGORDOUGLAS4142022-12-01 23:30:005.8813660
301FLGW4RIWSNAKE - AB JACKSON L AT FLAGG RWYTETON68022022-12-01 23:30:002.533129
302RYGO3MFRROGUE - AT RAYGOLDORJACKSON11222022-12-01 23:30:001.2815660
303EGLO3MFRROGUE - NEAR EAGLE POINTORJACKSON12702022-12-01 23:30:003.0612720
304KERM8MSOFLATHEAD - SELI’Š KSANKA QLISPE’ DAMMTLAKE27302022-12-01 23:30:002889.91 0
305AGNO3MFRROGUE - NEAR AGNESORCURRY1132022-12-01 23:30:003.6429930
306AMFI1PIHSNAKE - AT AMERICAN FALLS DAMIDPOWER42122022-12-01 23:30:002.063040
307WNRO3MFRN UMPQUA - AT WINCHESTERORDOUGLAS3722022-12-01 23:30:004.6945330
308ALPW4RIWSNAKE - NEAR ALPINEWYLINCOLN56842022-12-01 23:30:002.6112980
309ALBO3PQRWILLAMETTE - AT ALBANYORLINN1672022-12-01 23:30:007.56155380
310ELKO3MFRELK CREEK - NEAR TRAILORJACKSON14552022-12-01 23:30:003.551080
311FRMO3PQRTUALATIN - AT FARMINGTONORWASHINGTON1002022-12-01 23:30:0013.6916920
312HCDI1PDTSNAKE - AT HELLS CANYON DAMIDADAMS14002022-12-01 23:30:0063.1680940
313HOPW1OTXPALOUSE - AT HOOPERWAWHITMAN10412022-12-01 23:30:004.111660
314SKBW1SEWNF SKOKOMISH - NEAR LOWER CUSHMAN DAM NEAR POTLATCHWAMASON3282022-12-01 23:30:002.373030
315SJMI1OTXST JOE - AT ST MARIESIDBENEWAH21002022-12-01 23:30:0023.3 0
316BRFI1BOISF BOISE - NR FEATHERVILLEIDELMORE42202022-12-01 23:30:001.492010
317SLMO3PQRWILLAMETTE - AT SALEMORMARION1062022-12-01 23:30:0010.78292740
318HEII1PIHSNAKE - NEAR HEISEIDBONNEVILLE50152022-12-01 23:30:001.4411620
319MKNW1SEWNISQUALLY - AT MCKENNAWATHURSTON2852022-12-01 23:30:002.3613780
320SMRW1SEWSAMISH - NEAR BURLINGTONWASKAGIT02022-12-01 23:30:005.62230
321HODO3PQRHOOD - NEAR TUCKER BRIDGEORHOOD RIVER3832022-12-01 23:30:003.936890
322HLKW1PDTYAKIMA - NEAR HORLICKWAKITTITAS17002022-12-01 23:30:0028.328170
323MLBO3MFRBIG BUTTE CREEK - NEAR MCLEODORJACKSON15262022-12-01 23:30:003.06880
324HARO3PQRWILLAMETTE - AT HARRISBURGORLINN2882022-12-01 23:30:005.52139300
325BFKW4RIWBUFFALO FK - AB LAVA CR NR MORANWYTETON67732022-12-01 23:30:001.654079
326MAYW1SEWCOWLITZ - BELOW MAYFIELD DAMWALEWIS2272022-12-01 23:30:0013.75101790
327MADO3BOIMALHEUR - NEAR DREWSEYORHARNEY34792022-12-01 23:30:002.84540
328GLBW1SEWSKYKOMISH - NEAR GOLD BARWASNOHOMISH2092022-12-01 23:30:005.8618120
329SERO3PDTJOHN DAY - AT SERVICE CKORWHEELER16322022-12-01 23:30:002.413560
330GREW4RIWGREYS - AB RES NR ALPINEWYLINCOLN57202022-12-01 23:30:002.9513820
331MEHO3PQRNORTH SANTIAM - AT MEHAMAORMARION6022022-12-01 23:30:004.5733430
332SILO3PQRSILETZ - AT SILETZORLINCOLN1022022-12-01 23:30:006.5931340
333GRAO3MFRROGUE - AT GRANTS PASSORJOSEPHINE8802022-12-01 23:30:001.413850
334SCRO3MFRSTEAMBOAT CREEK - NEAR GLIDEORDOUGLAS11292022-12-01 23:30:002.277780
335GORW1SEWSKAGIT - AT NEWHALEMWAWHATCOM4022022-12-01 23:30:0083.7136420
336SHAW1SEWBAKER - AT CONCRETEWASKAGIT1902022-12-01 23:30:00315230
337SUVO3PQRLUCKIAMUTE - NEAR SUVERORPOLK1722022-12-01 23:31:001623790
338APLO3MFRAPPLEGATE - APPLEGATE RESERVOIRORJACKSON19902022-12-01 23:35:001873.54 0
339DETO3PQRNORTH SANTIAM - DETROIT DAMORMARION15702022-12-01 23:35:001450.571553800
340VENO3PQRNEHALEM - NR VERNONIAORCOLUMBIA6402022-12-01 23:35:005.392350
341VAPW1PQRCOLUMBIA - AT VANCOUVER POPWACLARK22022-12-01 23:36:004.71 0
342WAUO3PQRCOLUMBIA - AT WAUNAORCLATSOP12022-12-01 23:36:003.01 0
343SHNO3PQRCOLUMBIA - AT ST HELENSORCOLUMBIA12022-12-01 23:36:004.38 0
344SKAW1PQRCOLUMBIA - AT SKAMOKAWAWAWAHKIAKUM12022-12-01 23:36:002.54 0
345GOSO3PQRCOAST FORK WILLAMETTE - NEAR GOSHENORLANE4742022-12-01 23:40:003.7515360
346WTLO3PQRSOUTH SANTIAM - AT WATERLOOORLINN3702022-12-01 23:40:005.7657740
347JASO3PQRMF WILLAMETTE - AT JASPERORLANE5132022-12-01 23:40:005.2962930
348EUGO3PQRWILLAMETTE - AT EUGENEORLANE3902022-12-01 23:40:0012.3176840
349ARLW1SEWSTILLAGUAMISH - NEAR ARLINGTONWASNOHOMISH652022-12-01 23:40:002.4227290
350OMCN2LKNOWYHEE - NEAR MTN CITYNVELKO55602022-12-01 23:40:003.93259
351FRNO3PQRLONG TOM - FERN RIDGE DAMORLANE3742022-12-01 23:40:001.89820
352LSMO3PQRLITTLE N SANTIAM - NEAR MEHAMAORMARION6552022-12-01 23:40:004.8310310
353WSLO3PQRTUALATIN - AT WEST LINNORCLACKAMAS852022-12-01 23:40:005.416250
354OCUO3PQRWILLAMETTE - AB FALLS AT OR CITYORCLACKAMAS502022-12-01 23:42:0057.3 0
355VICM8MSOBITTERROOT - NEAR VICTORMTRAVALLI33302022-12-01 23:45:004.794180
356VIDO3PQRMCKENZIE - NEAR VIDAORLANE8562022-12-01 23:45:001.8733710
357WODI1PIHLITTLE WOOD - NEAR CAREYIDBLAINE49912022-12-01 23:45:000.819
358SNDO3PQRSANDY - SANDYORCLACKAMAS2402022-12-01 23:45:0010.3331200
359MLKW1PDTMILL CREEK - NR WALLA WALLAWAWALLA WALLA19962022-12-01 23:45:0013.52620
360PLOI1OTXPALOUSE - NEAR POTLATCHIDLATAH24552022-12-01 23:45:005.44379
361PUYW1SEWPUYALLUP - AT PUYALLUPWAPIERCE502022-12-01 23:45:0011.7124350
362SPOW1OTXSPOKANE - AT SPOKANEWASPOKANE16962022-12-01 23:45:0018.6324290
363RAWW1SEWCOWLITZ - AT RANDLEWALEWIS8902022-12-01 23:45:004.9811870
364WILW1PQRWILLAPA - NEAR WILLAPAWAPACIFIC42022-12-01 23:45:007.5813550
365GVZW4RIWGROS VENTRE - AT ZENITHWYTETON626000
366RIMW1PDTTIETON - AT TIETON DAMWAYAKIMA2926 0
367KEEW1PDTYAKIMA - NEAR MARTINWAKITTITAS2479 0
368MAKI1PIHBIG LOST - BLO MACKAY RESIDCUSTER594600
369CLEW1PDTCLE ELUM - NEAR ROSLYNWAKITTITAS2240 0
370BUMW1PDTBUMPING - BELOW BUMPING DAMWAYAKIMA34411.2 0
371ARKI1BOIBOISE - ARROWROCK DAMIDELMORE3275 0
372KACW1PDTKACHESS - NEAR EASTONWAKITTITAS2269 0
373OWCO3BOIOWYHEE CANAL AT OWYHEE DAMORMALHEUR2500 0
374SHDW1SEWBAKER - LAKE SHANNONWASKAGIT156 0
375WLSO3PQRWILLAMETTE - AT WILSONVILLEORCLACKAMAS5031000














Loading Hydrograph...